TimeEDT,TemperatureF,Dew PointF,Humidity,Sea Level PressureIn,VisibilityMPH,Wind Direction,Wind SpeedMPH,Gust SpeedMPH,PrecipitationIn,Events,Conditions,WindDirDegrees,DateUTC
12:54 AM,39.0,37.9,96,29.60,6.0,Calm,Calm,-,0.00,,Overcast,0,2013-03-25 04:54:00
1:02 AM,39.0,39.0,100,29.59,6.0,Calm,Calm,-,N/A,,Overcast,0,2013-03-25 05:02:00
1:54 AM,39.9,37.9,93,29.59,6.0,East,3.5,-,N/A,,Overcast,100,2013-03-25 05:54:00
2:54 AM,39.9,39.0,97,29.60,5.0,Calm,Calm,-,0.00,Rain,Light Rain,0,2013-03-25 06:54:00
3:54 AM,39.9,39.9,100,29.57,4.0,South,3.5,-,0.01,Rain,Light Rain,190,2013-03-25 07:54:00
4:39 AM,39.9,39.0,97,29.56,5.0,SSW,3.5,-,0.00,,Overcast,200,2013-03-25 08:39:00
4:54 AM,39.9,39.0,97,29.58,5.0,West,3.5,-,0.00,,Overcast,260,2013-03-25 08:54:00
5:05 AM,39.9,39.0,97,29.56,6.0,West,3.5,-,N/A,,Overcast,260,2013-03-25 09:05:00
5:49 AM,41.0,39.2,93,29.57,8.0,WSW,9.2,-,N/A,,Overcast,250,2013-03-25 09:49:00
5:54 AM,41.0,39.9,96,29.59,8.0,WSW,8.1,-,N/A,,Overcast,250,2013-03-25 09:54:00
6:38 AM,39.9,37.9,93,29.59,10.0,WSW,8.1,-,N/A,,Overcast,240,2013-03-25 10:38:00
6:54 AM,37.9,37.0,97,29.62,10.0,WSW,6.9,-,N/A,,Scattered Clouds,250,2013-03-25 10:54:00
7:54 AM,37.0,35.1,93,29.63,9.0,WSW,6.9,-,N/A,,Clear,240,2013-03-25 11:54:00
8:54 AM,37.9,34.0,86,29.65,10.0,West,10.4,-,N/A,,Overcast,260,2013-03-25 12:54:00
9:54 AM,39.9,32.0,73,29.67,10.0,West,10.4,21.9,N/A,,Mostly Cloudy,270,2013-03-25 13:54:00
10:54 AM,43.0,28.0,56,29.68,10.0,WNW,15.0,21.9,N/A,,Mostly Cloudy,290,2013-03-25 14:54:00
11:54 AM,42.1,26.1,53,29.72,10.0,NW,9.2,20.7,N/A,,Overcast,310,2013-03-25 15:54:00
12:54 PM,46.0,26.1,46,29.72,10.0,West,19.6,31.1,N/A,,Overcast,270,2013-03-25 16:54:00
1:54 PM,46.9,23.0,39,29.70,10.0,West,15.0,21.9,N/A,,Overcast,270,2013-03-25 17:54:00
2:54 PM,48.9,23.0,36,29.69,10.0,West,16.1,27.6,N/A,,Overcast,260,2013-03-25 18:54:00
3:54 PM,46.0,21.0,37,29.71,10.0,West,15.0,21.9,N/A,,Overcast,280,2013-03-25 19:54:00
4:54 PM,46.9,21.0,36,29.72,10.0,West,11.5,27.6,N/A,,Overcast,270,2013-03-25 20:54:00
5:54 PM,46.9,21.0,36,29.74,10.0,West,11.5,23.0,N/A,,Overcast,280,2013-03-25 21:54:00
6:54 PM,45.0,21.0,39,29.78,10.0,West,11.5,-,N/A,,Mostly Cloudy,280,2013-03-25 22:54:00
7:54 PM,43.0,21.0,42,29.83,10.0,West,6.9,-,N/A,,Mostly Cloudy,280,2013-03-25 23:54:00
8:54 PM,41.0,21.0,45,29.86,10.0,NNW,6.9,-,N/A,,Partly Cloudy,330,2013-03-26 00:54:00
9:54 PM,39.0,19.9,46,29.88,10.0,WNW,8.1,-,N/A,,Clear,300,2013-03-26 01:54:00
10:54 PM,37.9,19.9,48,29.91,10.0,WNW,10.4,-,N/A,,Clear,300,2013-03-26 02:54:00
11:54 PM,35.1,21.9,59,29.93,10.0,SW,6.9,-,N/A,,Mostly Cloudy,230,2013-03-26 03:54:00